Theta_e
338 339 339 334 325 325 325 323 321 320 322 324 323 322 321 322 322 323 324 324 324 322 321 321 325 331 334 334 335 336 336 336 334 334 333 331 329 329 332 334 333 334
340 340 340 338 335 332 328 325 324 321 322 324 325 325 324 325 326 325 325 326 324 322 322 325 330 334 334 335 335 335 336 336 335 334 333 331 331 332 333 333 333 334
342 341 341 341 340 338 334 332 329 325 323 326 327 328 327 327 327 326 325 326 325 324 325 329 333 335 335 335 336 336 336 336 335 335 333 331 332 333 333 334 335 335
342 342 341 341 341 341 339 336 333 329 327 329 330 329 329 327 327 327 327 328 328 327 329 333 335 335 336 337 337 337 336 335 335 335 334 331 332 334 335 335 336 336
341 341 340 341 342 342 340 337 335 333 332 332 331 330 329 329 328 329 330 331 331 331 333 336 336 336 338 338 337 337 336 336 336 335 334 331 330 334 335 335 336 337
339 339 340 341 342 342 339 336 336 336 335 334 333 332 331 331 331 332 333 333 333 334 336 337 337 338 338 338 338 336 336 337 337 335 334 331 329 331 334 335 336 337
337 338 340 342 342 341 337 337 338 338 339 338 336 336 335 334 334 334 335 335 335 336 337 337 338 338 338 338 338 336 336 338 338 336 334 330 328 330 333 334 336 338
336 338 340 341 342 340 338 337 339 340 341 340 339 338 337 336 336 336 337 337 338 338 338 338 338 338 338 338 338 337 337 339 338 336 334 331 329 332 334 334 336 339
337 340 341 340 339 337 337 338 339 340 340 339 339 339 338 338 338 338 338 338 339 338 338 339 338 338 338 338 337 336 337 339 337 335 334 331 330 333 334 335 336 338
339 341 341 339 335 334 337 339 339 340 339 339 339 339 338 338 338 339 339 339 340 340 339 340 339 339 339 338 337 337 338 338 337 335 333 330 330 333 335 337 338 338
338 341 341 337 331 332 336 338 340 341 340 340 340 339 338 338 338 339 340 340 341 341 340 340 339 338 338 338 337 337 338 338 338 337 334 330 330 333 336 338 338 338
334 339 341 336 331 330 332 335 339 340 341 342 342 341 340 340 340 341 341 341 341 341 341 340 339 339 339 339 337 338 338 338 338 338 335 331 329 332 336 338 338 339
331 335 340 339 332 328 329 331 334 338 339 341 342 343 343 342 342 342 341 341 341 341 341 341 341 340 340 340 339 338 338 337 338 338 336 332 330 331 335 337 337 338
329 329 338 339 332 327 328 329 332 335 337 339 341 342 342 342 343 342 340 340 341 342 342 341 341 340 340 340 338 338 338 338 338 338 336 332 330 331 335 337 337 337
329 329 337 338 332 327 328 332 337 337 336 340 342 342 342 342 342 340 339 340 342 343 342 340 339 339 339 338 337 337 337 337 338 338 336 333 331 332 335 336 336 337
329 329 336 337 333 330 332 337 340 337 336 340 342 341 341 341 341 341 340 340 341 342 341 338 338 339 337 335 335 337 338 338 338 338 336 334 332 332 334 336 336 338
326 328 336 338 333 331 336 339 339 336 336 339 341 341 340 340 341 341 341 340 341 341 339 337 337 337 336 333 334 336 338 338 338 337 337 336 334 333 334 335 337 338
325 328 334 336 332 331 336 338 338 336 336 338 339 340 339 339 339 341 341 340 340 340 339 337 335 334 334 333 334 335 336 337 337 337 337 337 335 334 335 336 336 337
324 326 332 335 335 335 336 337 337 336 336 335 336 337 338 338 339 340 340 340 340 340 339 337 334 332 333 335 336 336 335 336 337 337 336 335 334 334 335 336 336 336
330 332 334 336 338 338 337 336 335 332 332 332 334 336 338 337 338 340 340 340 340 341 341 338 335 334 334 336 336 336 335 336 336 335 335 335 334 334 335 336 336 336
335 335 336 337 338 338 337 337 334 331 332 333 334 336 337 337 338 339 339 340 341 341 341 339 336 335 335 336 336 336 335 336 335 336 336 335 334 334 336 336 336 335
335 335 336 336 338 338 337 337 336 335 336 335 334 335 336 337 339 339 339 340 341 342 341 338 336 335 335 336 335 335 335 336 337 337 337 335 334 335 337 337 336 335
335 335 335 336 336 337 338 337 337 337 336 335 335 337 338 338 339 339 339 340 341 341 340 338 336 335 335 335 334 334 336 337 337 337 336 335 335 336 337 337 336 334
335 336 335 335 336 336 337 337 337 337 336 336 337 339 339 339 339 340 340 340 341 341 339 337 336 336 336 335 334 335 337 337 337 337 336 335 335 336 336 336 335 333
334 336 335 335 335 336 336 337 337 336 337 337 338 339 339 340 340 340 340 340 341 341 339 336 336 336 335 335 335 336 337 338 337 337 335 335 336 337 336 335 334 333
334 335 335 335 335 336 336 337 336 337 338 337 336 337 338 339 339 339 339 340 341 341 337 334 336 337 336 335 336 336 337 338 337 336 335 336 336 337 337 335 333 333
Wind_Speed
33 30 29 35 41 41 40 40 38 37 36 34 33 33 30 26 23 21 20 19 19 20 19 18 19 20 19 18 16 15 13 12 11 9 9 9 10 12 13 13 12 11
30 29 26 28 35 39 40 39 38 39 38 35 32 30 27 23 21 19 18 17 18 19 19 19 20 21 19 17 16 15 13 13 12 10 9 9 10 11 12 12 12 12
28 28 25 24 25 30 34 33 32 37 39 34 28 25 23 22 20 19 19 18 19 20 21 21 22 21 19 17 16 15 13 13 12 10 9 9 11 12 11 12 12 12
28 28 25 24 24 24 28 29 29 34 35 31 27 25 24 23 21 20 21 20 20 22 23 23 23 21 19 19 17 15 14 14 13 11 10 10 12 13 13 13 13 13
28 28 25 24 24 23 25 30 30 30 31 29 27 26 25 23 23 23 22 21 22 23 23 23 23 22 20 20 19 17 16 14 13 12 11 12 14 15 14 14 14 14
28 27 25 25 24 23 26 29 28 26 27 27 27 26 26 25 25 24 23 23 23 24 24 24 24 23 22 22 20 18 18 14 13 13 12 12 16 16 15 15 15 14
29 29 28 26 23 23 27 26 24 23 23 23 25 25 26 26 26 25 24 23 23 23 24 24 24 24 24 22 20 19 18 14 13 14 13 13 16 17 16 16 15 13
29 31 31 27 22 24 26 23 22 22 21 22 24 25 27 27 26 25 24 23 22 22 23 23 23 23 22 21 21 21 19 15 14 15 14 14 17 16 15 16 15 13
31 31 28 24 22 24 25 23 23 23 23 25 26 27 27 27 26 25 24 22 22 23 23 23 22 22 21 22 23 22 18 16 16 16 15 15 16 16 15 16 15 14
32 28 23 20 22 25 25 24 24 24 25 26 26 26 27 26 25 24 23 22 22 23 22 21 21 21 21 23 23 21 18 17 17 16 16 16 17 17 16 15 15 14
29 23 20 20 22 24 25 25 24 24 24 24 24 26 28 27 27 25 24 24 23 23 22 22 22 22 22 24 24 20 17 17 17 16 16 17 18 18 16 16 15 14
34 22 19 21 23 24 24 23 22 22 22 21 21 23 25 26 26 26 25 26 24 24 23 22 22 21 20 22 22 20 18 17 16 15 15 17 19 18 16 16 15 14
40 28 20 21 25 25 23 20 20 21 22 21 20 20 22 23 23 24 26 26 24 23 22 20 20 20 19 20 19 19 18 18 17 15 16 18 19 19 18 16 16 15
43 36 24 22 26 26 23 20 19 21 23 23 21 21 22 22 22 24 26 26 23 22 21 20 20 20 20 19 19 19 18 17 17 16 17 19 20 20 18 17 16 15
41 38 28 25 28 28 25 22 19 20 22 22 21 21 21 21 22 23 25 25 22 21 21 22 21 20 20 20 20 19 18 17 16 16 17 20 21 21 19 18 17 15
39 36 27 26 30 30 25 21 18 20 22 20 19 20 20 21 22 21 23 24 22 21 23 23 21 19 21 23 22 19 17 15 15 16 17 19 21 22 20 18 16 14
40 34 25 24 30 30 23 20 21 24 24 20 19 19 19 21 22 22 23 23 21 22 24 24 22 21 22 24 23 21 18 15 14 16 17 18 20 21 19 17 15 14
35 31 24 24 29 29 25 22 23 25 24 21 20 19 20 22 24 23 23 23 21 23 24 24 24 24 22 22 22 22 20 17 16 17 18 18 18 17 15 16 15 14
31 30 26 25 26 27 26 24 23 24 24 24 23 21 21 22 24 24 23 23 22 22 22 23 25 23 20 20 21 22 21 19 17 18 19 18 17 15 15 17 17 17
28 29 28 27 26 24 24 25 26 27 26 24 22 21 21 22 24 25 24 23 22 21 20 21 22 21 20 20 21 21 21 20 18 18 17 16 16 17 17 17 17 18
26 28 29 30 28 25 25 25 26 27 25 23 21 21 22 22 23 25 25 24 22 21 19 19 20 20 21 22 22 22 22 21 19 17 15 16 17 17 17 16 16 15
29 29 29 28 26 25 24 24 24 24 23 22 21 22 22 22 22 24 26 24 22 21 20 19 20 21 21 22 23 23 23 22 20 16 15 16 16 16 16 15 15 15
28 28 26 25 25 25 25 25 25 23 22 21 20 21 22 23 24 25 25 24 23 22 21 20 21 22 22 23 25 26 25 24 20 16 17 18 18 18 18 17 17 16
25 26 26 26 26 26 26 26 24 23 22 21 20 20 21 23 23 23 23 23 22 22 22 22 21 22 23 25 26 27 26 25 20 17 19 21 21 21 20 19 18 17
23 23 24 25 26 26 26 25 24 24 23 21 20 20 20 21 21 20 21 23 22 21 23 24 22 22 25 26 27 27 27 26 22 19 22 24 23 23 22 21 19 17
23 23 24 24 25 26 26 25 24 23 21 21 22 21 19 20 21 20 21 23 22 21 25 26 23 23 26 28 27 28 28 27 25 23 24 24 24 24 23 22 19 17
Wind_Direction
203 206 206 209 215 216 211 209 211 212 212 212 215 218 220 226 230 229 235 240 238 235 227 221 218 211 204 206 212 215 220 229 238 248 259 258 245 229 224 223 223 227
196 199 200 203 208 211 209 208 209 209 210 212 216 217 218 220 221 225 232 233 229 223 216 212 211 207 204 207 213 215 222 231 236 248 257 248 232 225 222 221 223 227
192 193 194 195 197 202 203 203 204 207 210 213 216 216 213 213 216 221 224 221 215 212 209 208 208 206 204 208 215 216 223 232 236 246 250 235 224 222 219 218 222 226
192 191 191 191 189 191 193 195 200 205 209 212 212 210 210 212 212 213 212 208 205 205 205 205 205 205 205 211 217 216 221 231 236 242 241 228 222 219 218 219 222 227
195 192 191 191 189 184 185 192 197 200 205 206 204 203 204 204 202 201 200 199 200 201 201 203 204 204 206 213 217 217 222 226 229 236 234 223 221 220 221 222 223 228
195 193 194 194 189 180 180 187 191 193 197 198 195 194 195 194 194 193 193 194 195 197 199 202 203 204 208 213 214 217 222 221 222 232 232 222 221 222 224 224 223 228
192 192 194 193 186 177 174 178 181 183 187 188 186 185 185 186 187 187 189 190 190 194 199 202 204 206 209 210 212 215 217 214 216 226 227 219 219 221 226 227 225 229
193 192 192 189 179 171 167 168 174 178 179 179 178 177 178 180 181 182 184 186 188 193 200 204 206 209 211 210 213 214 212 209 211 218 221 216 215 219 225 227 225 228
195 192 190 184 172 165 162 165 173 177 177 176 175 174 175 176 178 181 184 186 191 196 201 205 207 210 212 213 215 213 209 210 212 217 220 215 212 217 223 226 226 229
195 191 187 179 170 166 163 167 174 178 178 176 174 174 175 177 181 184 187 191 195 199 202 205 207 210 213 215 216 213 209 211 213 215 220 216 211 214 220 222 225 229
200 191 187 181 174 172 171 173 179 181 178 177 176 175 176 180 184 186 190 194 198 200 203 206 208 211 213 216 217 214 210 212 212 213 218 216 209 211 218 220 224 229
211 197 189 187 182 181 180 179 184 186 182 178 178 178 180 184 186 189 193 197 200 201 203 206 208 209 210 212 214 213 212 213 212 212 216 213 208 210 216 220 225 228
210 203 194 191 189 189 187 183 188 193 191 186 183 184 187 187 188 193 198 200 202 203 203 205 205 204 204 205 206 209 213 213 213 214 216 213 208 209 215 221 224 227
204 204 200 197 194 191 190 189 191 196 196 194 192 191 191 190 191 195 199 201 202 204 203 203 203 203 202 201 202 206 209 211 213 214 215 212 208 209 216 221 224 227
198 200 201 201 199 194 191 194 196 199 199 196 195 196 193 192 195 199 200 200 201 202 204 204 203 202 202 201 203 205 206 209 212 213 212 209 207 209 214 220 224 223
199 202 202 200 200 196 193 194 196 201 201 196 196 198 194 192 196 200 202 202 201 202 204 205 203 202 206 207 206 204 203 206 209 211 210 207 208 210 212 218 222 220
201 205 203 198 200 198 193 194 197 202 204 198 197 198 195 195 197 200 203 204 201 202 205 206 204 205 209 211 209 206 202 199 201 204 205 206 208 209 210 215 217 217
199 203 202 199 200 197 193 194 198 202 204 201 200 197 194 197 200 199 204 206 202 204 208 209 208 210 212 211 210 208 202 197 197 200 202 204 207 206 206 212 214 217
197 202 203 199 196 193 192 193 195 199 203 204 205 198 193 199 201 199 204 207 204 205 210 212 212 213 211 207 206 205 201 198 201 204 204 205 207 203 201 208 212 215
191 195 195 193 191 188 188 190 194 199 202 203 203 197 194 201 201 198 202 206 204 204 208 213 213 210 205 202 202 201 198 197 203 209 206 203 205 202 200 207 213 216
188 190 190 190 188 185 186 188 192 197 199 198 197 196 197 201 200 198 201 203 202 203 206 210 212 206 202 203 200 196 193 195 201 205 200 197 201 200 199 206 212 215
187 190 191 189 186 185 187 188 189 192 195 195 195 196 198 199 199 200 201 201 201 202 205 212 214 206 204 205 199 191 191 195 198 197 193 192 196 197 200 206 211 215
184 186 188 187 188 189 189 189 190 192 194 194 193 194 196 198 200 202 201 200 202 203 206 214 214 207 206 204 196 191 193 195 195 192 189 190 195 200 203 205 210 216
182 183 186 186 189 192 191 190 190 191 193 193 192 194 195 197 200 201 198 199 202 204 208 212 212 208 206 202 195 193 195 195 192 190 189 193 200 205 206 207 210 216
183 184 187 188 191 193 192 191 191 192 193 193 194 196 195 195 198 198 196 199 203 206 208 210 212 211 205 200 197 196 196 195 194 194 196 201 206 208 209 210 212 215
187 186 187 189 193 194 192 191 191 191 191 196 201 201 197 197 200 198 198 201 204 207 207 206 210 212 205 200 200 198 197 199 201 204 205 206 209 211 211 213 214 215